Regional Weather Roundup
Issued by NWS Burlington, VT

Home | Current Version | Previous Version | Text Only | Print | Product List | Glossary On
Versions: 1 2 3 4 5 6 7 8 9 10 11 12 13 14 15 16 17 18 19 20 21 22 23 24 25 26 27 28 29 30 31 32 33 34 35 36 37 38 39 40 41 42 43 44 45 46 47 48 49 50
000
ASUS41 KBTV 100930
RWRBTV
VERMONT REGIONAL WEATHER ROUNDUP
NATIONAL WEATHER SERVICE BURLINGTON VT
400 AM EST SAT DEC 10 2016

NOTE: "FAIR" INDICATES FEW OR NO CLOUDS BELOW 12,000 FEET WITH NO
SIGNIFICANT WEATHER AND/OR OBSTRUCTIONS TO VISIBILITY.

* THESE REPORTS ARE NOT UNDER NWS QUALITY CONTROL AND/OR DO NOT
  REPORT WEATHER SUCH AS PRECIPITATION AND FOG.

VTZ001>019-101000-
_____VERMONT_____


CITY           SKY/WX    TMP DP  RH WIND       PRES   REMARKS
BURLINGTON     CLOUDY    21   6  52 NW13      30.25R WCI   9
MONTPELIER     CLOUDY    16   7  67 NW8       30.20S WCI   5
MORRISVILLE    FLURRIES  17   7  64 NW6       30.22S WCI   9
ST. JOHNSBURY*   N/A     18   5  57 MISG      30.17F
LYNDONVILLE*   CLOUDY    14   4  65 NW7       30.17S WCI   4
MIDDLEBURY*    CLOUDY    20   6  54 NW7       30.24S WCI  11
RUTLAND*       CLOUDY    15   7  70 NW3       30.22S
SPRINGFIELD    PTCLDY    17   4  56 NW5       30.23S WCI  10
HIGHGATE*      FAIR      19   6  59 NW5       30.27S WCI  12
NEWPORT*       MOCLDY    13   5  70 NW7       30.19S WCI   3
BENNINGTON     CLEAR     16   4  59 W3        30.24R
SUTTON*          N/A     12 N/A N/A MISG        N/A
ISLAND POND*     N/A     14 N/A N/A NW9         N/A  WCI   2
GALLUP MILLS*    N/A     12 N/A N/A MISG        N/A
UNION VILLAGE*   N/A     19 N/A N/A MISG        N/A
MT. MANSFIELD*   N/A      3 N/A N/A NW32        N/A  WCI -22

_____LAKE CHAMPLAIN_____


CITY           SKY/WX    TMP DP  RH WIND       PRES   REMARKS
BURTON ISLAND*   N/A     25  12  58 NW9         N/A  WCI  15
COLCHESTER RF*   N/A     25  14  63 NW20        N/A  WCI  11
DIAMOND ISL*     N/A     23  10  58 W10G25      N/A  WCI  12

$$

NYZ007-026>031-035-052-083-087-101000-
_____NORTHERN NEW YORK_____


CITY           SKY/WX    TMP DP  RH WIND       PRES   REMARKS
PLATTSBURGH    PTCLDY    19   8  62 NW7       30.27S WCI  10
SARANAC LAKE   CLOUDY    12   6  77 VRB3      30.16R
MASSENA        CLOUDY    20  12  71 W7        30.32R WCI  11
OGDENSBURG*    CLEAR     16  14  93 CALM      30.32R
POTSDAM*       CLOUDY    18  16  93 SW5       30.30S WCI  11
STARK FALLS*     N/A     12 N/A N/A W5          N/A  WCI   4
WATERTOWN      PTCLDY    12  10  92 CALM      30.33R
FT DRUM        CLEAR     12   9  87 NW3       30.28R
ALBANY         MOCLDY    18  12  77 CALM      30.31R
GLENS FALLS    CLEAR     18   7  62 MISG      30.29R

$$
NHZ002-005-011-101000-
_____NEW HAMPSHIRE_____


CITY           SKY/WX    TMP DP  RH WIND       PRES   REMARKS
LEBANON        CLOUDY    20   8  60 NW6       30.21R WCI  12
KEENE          CLEAR     18   7  62 W3        30.22S
MT WASHINGTON  ICE FOG  -11 -11 100 NW54        N/A  VSB 0   WCI -48
PLYMOUTH         N/A     18   6  58 NW3       30.19S
WHITEFIELD     CLOUDY    15   4  61 NW7       30.16R WCI   5

$$

_____REGIONAL QUEBEC LOCATIONS_____


CITY           SKY/WX    TMP DP  RH WIND       PRES   REMARKS
MONTREAL       PTCLDY    16   5  62 NW7       30.29R WCI   6
QUEBEC CITY    PTCLDY     5  -2  72 SW14      30.18R WCI -12
SHERBROOKE     CLOUDY    12   3  67 N6        30.18R WCI   3

_____REGIONAL ONTARIO LOCATIONS_____


CITY           SKY/WX    TMP DP  RH WIND       PRES   REMARKS
OTTAWA         MOCLDY    14  10  85 W5        30.30S WCI   6

______KEY______
VSB  - VISIBILITY IN MILES
WCI  - WIND CHILL INDEX
HX   - HEAT INDEX
$$
NNNN




USA.gov is the U.S. government's official web portal to all federal, state and local government web resources and services.